Weather History for Iron Mountain, MI

Change the Weather History Date:

Monday, February 11, 2013

  Actual Average Record
Temperature  
Mean Temperature 28 °F -  
Max Temperature 34 °F 26 °F 42 °F (1999)
Min Temperature 21 °F 4 °F -22 °F (2014)
Degree Days  
Heating Degree Days 36    
Moisture  
Dew Point 29 °F    
Average Humidity 90    
Maximum Humidity 100    
Minimum Humidity 69    
Precipitation  
Precipitation 0.00 in - - ()
Sea Level Pressure  
Sea Level Pressure 29.38 in    
Wind  
Wind Speed 6 mph (WSW)    
Max Wind Speed 26 mph    
Max Gust Speed 34 mph    
Visibility 5 miles    
Events Fog , Rain , Snow    
Averages and records for this station are not official NWS values.
T = Trace of Precipitation, MM = Missing Value Source: NWS Daily Summary

Daily Weather History Graph

Daily Weather History Graph

Search for Another Location

Airport:

Trip Planner

Search our weather history database for the weather conditions in past years. The results will help you decide how hot, cold, wet, or windy it might be!

Date:

Astronomy

Feb. 11, 2013 Rise Set
Actual Time 7:00 AM CST 5:13 PM CST
Civil Twilight 6:29 AM CST 5:44 PM CST
Nautical Twilight 5:54 AM CST 6:19 PM CST
Astronomical Twilight 5:19 AM CST 6:54 PM CST
Moon 7:17 AM CST (2/11) 7:19 PM CST (2/11)
Length of Visible Light 11h 14m
Length of Day
10h 13m
Waxing Crescent, 3% of the Moon is Illuminated
Feb 11
Waxing Crescent
Feb 17
First Quarter
Feb 25
Full
Mar 4
Last Quarter
Mar 11
New

Hourly Weather History & Observations

Time (CST) Temp. Windchill Dew Point Humidity Pressure Visibility Wind Dir Wind Speed Gust Speed Precip Events Conditions
12:09 AM 33.8 °F - 33.8 °F 100% 29.28 in 2.5 mi Calm Calm - N/A   Overcast
12:30 AM 33.8 °F 29.6 °F 32.0 °F 93% 29.27 in 1.2 mi SE 4.6 mph - N/A   Overcast
12:54 AM 34.0 °F 28.8 °F 33.1 °F 96% 29.30 in 1.0 mi ESE 5.8 mph - N/A   Mist
1:05 AM 33.8 °F 30.8 °F 33.8 °F 100% 29.26 in 0.5 mi SSE 3.5 mph - N/A Fog Fog
1:30 AM 33.8 °F 29.6 °F 33.8 °F 100% 29.25 in 0.2 mi SE 4.6 mph - N/A Fog Fog
1:54 AM 33.1 °F - 33.1 °F 100% 29.28 in 0.5 mi Calm Calm - 0.00 in Fog , Rain Light Rain
2:18 AM 33.8 °F - 33.8 °F 100% 29.24 in 0.2 mi Calm Calm - 0.00 in Fog Fog
2:54 AM 33.1 °F 30.0 °F 33.1 °F 100% 29.27 in 0.2 mi SE 3.5 mph - 0.00 in Fog , Rain Light Rain
3:01 AM 33.8 °F 30.8 °F 33.8 °F 100% 29.23 in 0.5 mi SE 3.5 mph - 0.00 in Fog , Rain Light Rain
3:23 AM 33.8 °F 30.8 °F 33.8 °F 100% 29.22 in 1.8 mi SSE 3.5 mph - 0.00 in Rain Light Rain
3:27 AM 33.8 °F 30.8 °F 33.8 °F 100% 29.22 in 3.0 mi SSE 3.5 mph - 0.00 in Rain Light Rain
3:54 AM 34.0 °F 31.0 °F 33.1 °F 96% 29.26 in 8.0 mi South 3.5 mph - 0.00 in Rain Light Rain
4:21 AM 33.8 °F 28.6 °F 33.8 °F 100% 29.22 in 10.0 mi South 5.8 mph - 0.00 in   Overcast
4:32 AM 33.8 °F 29.6 °F 33.8 °F 100% 29.22 in 10.0 mi South 4.6 mph - 0.00 in   Overcast
4:54 AM 33.1 °F 30.0 °F 33.1 °F 100% 29.26 in 5.0 mi South 3.5 mph - 0.00 in Snow Light Snow
5:13 AM 33.8 °F 29.6 °F 32.0 °F 93% 29.22 in 4.0 mi South 4.6 mph - 0.00 in Snow Light Snow
5:54 AM 33.1 °F 28.7 °F 32.0 °F 96% 29.26 in 3.0 mi South 4.6 mph - 0.00 in Snow Light Snow
6:03 AM 33.8 °F 29.6 °F 32.0 °F 93% 29.23 in 2.5 mi South 4.6 mph - 0.00 in Snow Light Snow
6:46 AM 33.8 °F 29.6 °F 32.0 °F 93% 29.23 in 4.0 mi South 4.6 mph - 0.00 in Snow Light Snow
6:54 AM 33.1 °F 28.7 °F 32.0 °F 96% 29.27 in 4.0 mi South 4.6 mph - 0.00 in Snow Light Snow
7:08 AM 33.8 °F 29.6 °F 32.0 °F 93% 29.23 in 3.0 mi South 4.6 mph - 0.00 in Snow Light Snow
7:17 AM 33.8 °F 29.6 °F 32.0 °F 93% 29.24 in 2.5 mi South 4.6 mph - 0.00 in Snow Light Snow
7:25 AM 33.8 °F 30.8 °F 32.0 °F 93% 29.24 in 2.5 mi South 3.5 mph - 0.00 in Snow Light Snow
7:47 AM 33.8 °F 30.8 °F 32.0 °F 93% 29.24 in 3.0 mi South 3.5 mph - 0.00 in Snow Light Snow
7:54 AM 33.1 °F 30.0 °F 32.0 °F 96% 29.28 in 4.0 mi South 3.5 mph - 0.00 in Snow Light Snow
8:54 AM 34.0 °F 29.8 °F 32.0 °F 92% 29.29 in 6.0 mi West 4.6 mph - 0.00 in Snow Light Snow
9:05 AM 33.8 °F 27.7 °F 32.0 °F 93% 29.26 in 4.0 mi West 6.9 mph - 0.00 in Snow Light Snow
9:27 AM 33.8 °F 27.0 °F 32.0 °F 93% 29.28 in 3.0 mi WNW 8.1 mph - 0.00 in Snow Light Snow
9:34 AM 33.8 °F 25.8 °F 32.0 °F 93% 29.28 in 1.8 mi WNW 10.4 mph - 0.00 in Snow Light Snow
9:42 AM 33.8 °F 24.3 °F 32.0 °F 93% 29.28 in 1.0 mi WNW 13.8 mph 19.6 mph 0.00 in Snow Light Snow
9:54 AM 34.0 °F 26.0 °F 32.0 °F 92% 29.33 in 2.0 mi WNW 10.4 mph - 0.00 in Snow Light Snow
10:07 AM 33.8 °F 25.3 °F 32.0 °F 93% 29.30 in 1.0 mi WNW 11.5 mph - 0.00 in Snow Light Snow
10:13 AM 33.8 °F 25.3 °F 32.0 °F 93% 29.31 in 0.8 mi WNW 11.5 mph - 0.00 in Snow Light Snow
10:19 AM 33.8 °F 25.3 °F 30.2 °F 87% 29.31 in 1.0 mi WNW 11.5 mph - 0.00 in Snow Light Snow
10:28 AM 33.8 °F 24.8 °F 30.2 °F 87% 29.32 in 1.5 mi WNW 12.7 mph 20.7 mph 0.00 in Snow Light Snow
10:32 AM 33.8 °F 24.8 °F 30.2 °F 87% 29.32 in 2.0 mi WNW 12.7 mph 20.7 mph 0.00 in Snow Light Snow
10:42 AM 33.8 °F 23.9 °F 30.2 °F 87% 29.33 in 5.0 mi NW 15.0 mph 23.0 mph 0.00 in Snow Light Snow
10:54 AM 34.0 °F 22.4 °F 30.9 °F 89% 29.38 in 9.0 mi NW 20.7 mph 27.6 mph 0.00 in   Overcast
11:54 AM 33.1 °F 19.8 °F 26.1 °F 75% 29.44 in 10.0 mi WNW 26.5 mph 34.5 mph 0.00 in   Overcast
12:54 PM 30.0 °F 17.2 °F 25.0 °F 82% 29.49 in 10.0 mi NW 20.7 mph 31.1 mph 0.00 in   Overcast
1:54 PM 28.9 °F 16.1 °F 23.0 °F 78% 29.53 in 10.0 mi WNW 19.6 mph 27.6 mph 0.00 in   Overcast
2:54 PM 28.9 °F 14.5 °F 21.9 °F 75% 29.57 in 10.0 mi WNW 25.3 mph 32.2 mph N/A   Overcast
3:54 PM 28.0 °F 14.6 °F 21.9 °F 78% 29.62 in 10.0 mi WNW 20.7 mph 27.6 mph 0.00 in   Overcast
4:54 PM 27.0 °F 13.2 °F 18.0 °F 69% 29.67 in 10.0 mi WNW 20.7 mph 32.2 mph 0.00 in   Overcast
5:50 PM 24.8 °F 12.4 °F 17.6 °F 74% 29.66 in 10.0 mi NW 15.0 mph 24.2 mph N/A   Overcast
5:54 PM 25.0 °F 11.7 °F 18.0 °F 75% 29.71 in 10.0 mi WNW 17.3 mph 24.2 mph N/A   Overcast
6:54 PM 24.1 °F 13.7 °F 17.1 °F 75% 29.74 in 10.0 mi WNW 10.4 mph - N/A   Overcast
7:22 PM 24.8 °F 14.0 °F 17.6 °F 74% 29.71 in 9.0 mi WNW 11.5 mph - 0.00 in   Overcast
7:54 PM 24.1 °F 15.2 °F 18.0 °F 77% 29.77 in 4.0 mi WNW 8.1 mph - 0.00 in Snow Light Snow
8:42 PM 24.8 °F 14.0 °F 17.6 °F 74% 29.74 in 6.0 mi WNW 11.5 mph 23.0 mph 0.00 in Snow Light Snow
8:54 PM 24.1 °F 14.4 °F 18.0 °F 77% 29.80 in 6.0 mi WNW 9.2 mph - 0.00 in Snow Light Snow
10:54 PM 23.0 °F 13.1 °F 18.0 °F 81% 29.83 in 3.0 mi WNW 9.2 mph - 0.00 in Snow Light Snow
11:54 PM 21.9 °F 11.0 °F 17.1 °F 82% 29.86 in 10.0 mi WNW 10.4 mph - 0.00 in   Mostly Cloudy